User: anonymous   Login
Location: Unspecified
(0.0000°N, 0.0000°E)
Time: 00:59:10
(UTC+00:00)
Language:

Nova 2 - Orbit

View from above orbital plane
View from above orbital plane
View from above satellite
View from above satellite

Ground track
Ground track

The orbit data is extracted from the following two-line orbital elements,

1 19223U 88052A   18173.28722472 +.00000018 +00000-0 +23507-4 0  9994
2 19223 089.9662 085.6470 0030259 341.2461 133.7943 13.22670628448518
Epoch (UTC): 22 June 2018 06:53:36
Eccentricity: 0.0030259
inclination: 89.9662°
perigee height: 1151 km
apogee height: 1197 km
right ascension of ascending node: 85.6470°
argument of perigee: 341.2461°
revolutions per day: 13.22670628
mean anomaly at epoch: 133.7943°
orbit number at epoch: 44851

The dashed part of the orbit path shows where the satellite is in the earth's shadow,  

DLR